Tracking 29892 objects as of 21-Nov-2024
HD Live streaming from Space Station
objects crossing your sky now

STARLINK-5064

Track STARLINK-5064 now!
10-day predictions
STARLINK-5064 is classified as:


NORAD ID: 55428
Int'l Code: 2023-014AP
Perigee: 577.2 km
Apogee: 581.2 km
Inclination: 70.0 °
Period: 96.1 minutes
Semi major axis: 6950 km
RCS: Unknown
Launch date: January 31, 2023
Source: United States (US)
Launch site: AIR FORCE WESTERN TEST RANGE (AFWTR)
Your satellite tracking list
Your tracking list is empty




NASA's NSSDC Master Catalog

Two Line Element Set (TLE):
1 55428U 23014AP  24325.66776787  .00000644  00000-0  61733-4 0  9992
2 55428  69.9988 199.8201 0002865 270.2278  89.8552 14.98332038100553
Source of the keplerian elements: AFSPC